TimeCDT,TemperatureF,Dew PointF,Humidity,Sea Level PressureIn,VisibilityMPH,Wind Direction,Wind SpeedMPH,Gust SpeedMPH,PrecipitationIn,Events,Conditions,WindDirDegrees,DateUTC
12:14 AM,28.4,21.2,74,29.86,7.0,Calm,Calm,-,N/A,Snow,Light Snow,0,2013-04-08 05:14:00
12:33 AM,28.4,21.2,74,29.86,4.0,ENE,3.5,-,N/A,Snow,Light Snow,70,2013-04-08 05:33:00
12:54 AM,28.4,21.2,74,29.85,4.0,ENE,3.5,-,N/A,Snow,Light Snow,60,2013-04-08 05:54:00
1:13 AM,28.4,21.2,74,29.84,4.0,NE,4.6,-,N/A,,Overcast,40,2013-04-08 06:13:00
1:33 AM,28.4,23.0,80,29.85,5.0,NNE,3.5,-,N/A,Snow,Light Snow,30,2013-04-08 06:33:00
1:54 AM,28.4,23.0,80,29.85,4.0,NE,3.5,-,N/A,Snow,Light Snow,40,2013-04-08 06:54:00
2:14 AM,28.4,23.0,80,29.84,3.0,ENE,4.6,-,N/A,Snow,Light Snow,70,2013-04-08 07:14:00
2:33 AM,28.4,23.0,80,29.84,2.5,NE,4.6,-,N/A,Snow,Light Snow,50,2013-04-08 07:33:00
2:53 AM,28.4,24.8,86,29.84,1.5,ENE,4.6,-,N/A,Snow,Light Snow,60,2013-04-08 07:53:00
3:13 AM,28.4,24.8,86,29.83,2.0,NE,3.5,-,N/A,,Overcast,50,2013-04-08 08:13:00
3:34 AM,28.4,24.8,86,29.82,2.0,NE,3.5,-,0.01,Snow,Light Snow,40,2013-04-08 08:34:00
3:54 AM,28.4,24.8,86,29.82,2.0,NE,3.5,-,0.02,Snow,Light Snow,50,2013-04-08 08:54:00
4:14 AM,28.4,24.8,86,29.82,2.0,ENE,3.5,-,N/A,Snow,Light Snow,60,2013-04-08 09:14:00
4:33 AM,28.4,24.8,86,29.82,1.8,ENE,3.5,-,0.01,Snow,Light Snow,70,2013-04-08 09:33:00
4:53 AM,28.4,24.8,86,29.82,1.5,Calm,Calm,-,0.02,,Overcast,0,2013-04-08 09:53:00
5:14 AM,28.4,24.8,86,29.82,1.5,NE,3.5,-,N/A,Snow,Light Snow,50,2013-04-08 10:14:00
5:33 AM,28.4,24.8,86,29.81,1.5,NE,3.5,-,0.01,Snow,Light Snow,50,2013-04-08 10:33:00
5:53 AM,28.4,24.8,86,29.81,2.0,Calm,Calm,-,0.02,Snow,Light Snow,0,2013-04-08 10:53:00
6:14 AM,28.4,24.8,86,29.81,1.5,NE,4.6,-,N/A,Snow,Light Snow,40,2013-04-08 11:14:00
6:33 AM,28.4,24.8,86,29.81,2.5,NNE,4.6,-,0.01,Snow,Light Snow,30,2013-04-08 11:33:00
6:53 AM,28.4,24.8,86,29.81,1.5,NNE,4.6,-,0.01,Snow,Light Snow,20,2013-04-08 11:53:00
7:13 AM,28.4,24.8,86,29.82,2.5,NNE,4.6,-,0.01,Snow,Light Snow,30,2013-04-08 12:13:00
7:34 AM,28.4,24.8,86,29.82,10.0,NE,4.6,-,0.01,Snow,Light Snow,40,2013-04-08 12:34:00
7:54 AM,28.4,24.8,86,29.82,10.0,NNE,6.9,-,0.01,,Overcast,20,2013-04-08 12:54:00
8:14 AM,28.4,24.8,86,29.82,10.0,NNE,5.8,-,N/A,Snow,Light Snow,30,2013-04-08 13:14:00
8:34 AM,28.4,24.8,86,29.82,10.0,North,6.9,-,N/A,,Overcast,10,2013-04-08 13:34:00
8:53 AM,30.2,26.6,86,29.82,10.0,NNE,6.9,-,N/A,,Overcast,20,2013-04-08 13:53:00
9:14 AM,30.2,26.6,86,29.81,10.0,NNE,6.9,-,N/A,,Overcast,30,2013-04-08 14:14:00
9:33 AM,30.2,26.6,86,29.81,10.0,NNE,6.9,-,N/A,,Overcast,30,2013-04-08 14:33:00
9:54 AM,30.2,26.6,86,29.80,10.0,NNE,6.9,-,N/A,,Overcast,20,2013-04-08 14:54:00
10:13 AM,30.2,26.6,86,29.81,10.0,North,5.8,-,N/A,,Overcast,10,2013-04-08 15:13:00
10:34 AM,32.0,26.6,80,29.82,10.0,NE,5.8,-,N/A,Snow,Light Snow,40,2013-04-08 15:34:00
10:53 AM,32.0,26.6,80,29.82,10.0,NNE,5.8,-,N/A,Snow,Light Snow,30,2013-04-08 15:53:00
11:14 AM,32.0,26.6,80,29.83,10.0,North,5.8,-,N/A,,Overcast,10,2013-04-08 16:14:00
11:33 AM,33.8,26.6,75,29.83,10.0,NNE,5.8,-,N/A,,Overcast,20,2013-04-08 16:33:00
11:53 AM,33.8,26.6,75,29.83,10.0,NE,5.8,-,N/A,,Overcast,40,2013-04-08 16:53:00
12:14 PM,33.8,26.6,75,29.83,10.0,NNE,6.9,-,N/A,,Overcast,30,2013-04-08 17:14:00
12:33 PM,33.8,26.6,75,29.83,10.0,North,6.9,-,N/A,,Overcast,360,2013-04-08 17:33:00
12:53 PM,33.8,26.6,75,29.83,10.0,North,6.9,-,N/A,,Overcast,10,2013-04-08 17:53:00
1:13 PM,33.8,28.4,81,29.84,10.0,North,4.6,-,N/A,,Overcast,10,2013-04-08 18:13:00
1:33 PM,35.6,28.4,75,29.83,10.0,North,5.8,-,N/A,,Overcast,10,2013-04-08 18:33:00
1:53 PM,35.6,28.4,75,29.83,10.0,North,5.8,-,N/A,,Mostly Cloudy,10,2013-04-08 18:53:00
2:13 PM,37.4,28.4,70,29.83,10.0,Calm,Calm,-,N/A,,Mostly Cloudy,0,2013-04-08 19:13:00
2:34 PM,37.4,28.4,70,29.84,10.0,North,3.5,-,N/A,,Mostly Cloudy,360,2013-04-08 19:34:00
2:53 PM,37.4,28.4,70,29.84,10.0,NNE,3.5,-,N/A,,Overcast,20,2013-04-08 19:53:00
3:13 PM,35.6,28.4,75,29.85,10.0,NNW,4.6,-,N/A,,Overcast,340,2013-04-08 20:13:00
3:34 PM,35.6,28.4,75,29.86,10.0,North,4.6,-,N/A,,Overcast,350,2013-04-08 20:34:00
3:53 PM,35.6,28.4,75,29.86,10.0,NNW,8.1,-,N/A,,Overcast,340,2013-04-08 20:53:00
4:14 PM,35.6,28.4,75,29.86,10.0,NW,4.6,-,N/A,,Overcast,320,2013-04-08 21:14:00
4:33 PM,35.6,28.4,75,29.86,10.0,North,5.8,-,N/A,,Overcast,10,2013-04-08 21:33:00
4:53 PM,35.6,28.4,75,29.87,10.0,North,4.6,-,N/A,,Overcast,350,2013-04-08 21:53:00
5:14 PM,35.6,28.4,75,29.88,10.0,North,3.5,-,N/A,,Overcast,350,2013-04-08 22:14:00
5:33 PM,35.6,28.4,75,29.89,10.0,North,5.8,-,N/A,,Overcast,350,2013-04-08 22:33:00
5:53 PM,35.6,28.4,75,29.90,10.0,NNW,5.8,-,N/A,,Overcast,340,2013-04-08 22:53:00
6:14 PM,35.6,28.4,75,29.91,10.0,NNW,4.6,-,N/A,,Overcast,330,2013-04-08 23:14:00
6:33 PM,33.8,28.4,81,29.92,10.0,NNW,5.8,-,N/A,,Overcast,340,2013-04-08 23:33:00
6:54 PM,33.8,28.4,81,29.93,10.0,NNW,6.9,-,N/A,,Overcast,330,2013-04-08 23:54:00
7:13 PM,33.8,28.4,81,29.94,10.0,NNW,3.5,-,N/A,,Overcast,330,2013-04-09 00:13:00
7:34 PM,33.8,28.4,81,29.96,10.0,Calm,Calm,-,N/A,,Overcast,0,2013-04-09 00:34:00
7:53 PM,33.8,28.4,81,29.95,10.0,Calm,Calm,-,N/A,,Overcast,0,2013-04-09 00:53:00
8:13 PM,33.8,28.4,81,29.95,10.0,NNW,3.5,-,N/A,,Overcast,340,2013-04-09 01:13:00
8:34 PM,33.8,28.4,81,29.98,10.0,Calm,Calm,-,N/A,,Overcast,0,2013-04-09 01:34:00
8:53 PM,33.8,28.4,81,29.98,10.0,Calm,Calm,-,N/A,,Overcast,0,2013-04-09 01:53:00
9:14 PM,33.8,28.4,81,29.99,10.0,Calm,Calm,-,N/A,,Overcast,0,2013-04-09 02:14:00
9:33 PM,33.8,28.4,81,30.00,10.0,Calm,Calm,-,N/A,,Overcast,0,2013-04-09 02:33:00
9:53 PM,33.8,28.4,81,30.01,10.0,Calm,Calm,-,N/A,,Overcast,0,2013-04-09 02:53:00
10:14 PM,33.8,28.4,81,30.00,10.0,Calm,Calm,-,N/A,,Overcast,0,2013-04-09 03:14:00
10:33 PM,33.8,28.4,81,29.99,10.0,Calm,Calm,-,N/A,,Overcast,0,2013-04-09 03:33:00
10:53 PM,33.8,28.4,81,30.00,10.0,Calm,Calm,-,N/A,,Overcast,0,2013-04-09 03:53:00
11:14 PM,32.0,28.4,87,30.00,10.0,Calm,Calm,-,N/A,,Overcast,0,2013-04-09 04:14:00
11:34 PM,30.2,28.4,93,30.00,10.0,Calm,Calm,-,N/A,,Overcast,0,2013-04-09 04:34:00
11:53 PM,32.0,28.4,87,30.00,10.0,Calm,Calm,-,N/A,,Overcast,0,2013-04-09 04:53:00